When you browse on this site, cookies collect data to enhance your experience and personalize the content and advertising you see.
Visit our Privacy Policy to learn more. By continuing to use the site, you agree to this use of cookies and data.
  • In Latvia
  • List of Countries
  • For 7 days
  • Water Temperature
  • Satellite Maps
  • Weather Map
  • Weather Widgets
  • user-avatar
    Login

    Hourly Weather Linz

    Today, 20 February, Wednesday

    Time Temperature Precipitation Wind Pressure Humidity
    00:00 +6°C° 0.5 mm 2 mps 737 mmHg 92%
    01:00 +5°C° 0 mm 2 mps 737 mmHg 94%
    02:00 +5°C° 0.1 mm 2 mps 738 mmHg 94%
    03:00 +5°C° 0.1 mm 1 mps 738 mmHg 95%
    04:00 +5°C° 0.1 mm 1 mps 738 mmHg 95%
    05:00 +5°C° 0 mm 1 mps 738 mmHg 95%
    06:00 +5°C° 0 mm 1 mps 738 mmHg 95%
    07:00 +4°C° 0 mm 1 mps 738 mmHg 95%
    08:00 +5°C° 0 mm 1 mps 738 mmHg 91%
    09:00 +6°C° 0 mm 1 mps 739 mmHg 86%
    10:00 +7°C° 0 mm 1 mps 739 mmHg 82%
    11:00 +8°C° 0 mm 1 mps 739 mmHg 80%
    12:00 +8°C° 0 mm 2 mps 739 mmHg 77%
    13:00 +9°C° 0 mm 2 mps 738 mmHg 75%
    14:00 +9°C° 0 mm 2 mps 738 mmHg 76%
    15:00 +9°C° 0 mm 2 mps 738 mmHg 76%
    16:00 +9°C° 0 mm 2 mps 738 mmHg 77%
    17:00 +8°C° 0 mm 2 mps 739 mmHg 81%
    18:00 +8°C° 0 mm 1 mps 739 mmHg 85%
    19:00 +7°C° 0 mm 1 mps 739 mmHg 89%
    20:00 +6°C° 0 mm 1 mps 740 mmHg 90%
    21:00 +6°C° 0 mm 1 mps 740 mmHg 90%
    22:00 +6°C° 0 mm 1 mps 741 mmHg 90%
    23:00 +6°C° 0 mm 1 mps 741 mmHg 90%

    Tomorrow, 21 February, Thursday

    Time Temperature Precipitation Wind Pressure Humidity
    00:00 +6°C° 0 mm 1 mps 741 mmHg 90%
    01:00 +5°C° 0 mm 1 mps 741 mmHg 90%
    02:00 +5°C° 0 mm 1 mps 741 mmHg 91%
    03:00 +5°C° 0 mm 1 mps 741 mmHg 91%
    04:00 +5°C° 0 mm 1 mps 741 mmHg 91%
    05:00 +5°C° 0 mm 1 mps 741 mmHg 91%
    06:00 +5°C° 0 mm 1 mps 741 mmHg 91%
    07:00 +4°C° 0 mm 1 mps 742 mmHg 91%
    08:00 +6°C° 0 mm 1 mps 742 mmHg 88%
    09:00 +7°C° 0 mm 1 mps 742 mmHg 84%
    10:00 +7°C° 0 mm 2 mps 741 mmHg 80%
    11:00 +8°C° 0 mm 2 mps 741 mmHg 76%
    12:00 +9°C° 0 mm 3 mps 741 mmHg 72%
    13:00 +10°C° 0 mm 3 mps 741 mmHg 68%
    14:00 +10°C° 0 mm 4 mps 740 mmHg 69%
    15:00 +10°C° 0 mm 4 mps 740 mmHg 69%
    16:00 +11°C° 0 mm 4 mps 740 mmHg 70%
    17:00 +9°C° 0 mm 3 mps 740 mmHg 75%
    18:00 +8°C° 0 mm 3 mps 741 mmHg 80%
    19:00 +7°C° 0 mm 2 mps 741 mmHg 85%
    20:00 +7°C° 0 mm 3 mps 741 mmHg 84%
    21:00 +7°C° 0 mm 3 mps 742 mmHg 84%
    22:00 +6°C° 0 mm 4 mps 742 mmHg 84%
    23:00 +6°C° 0 mm 4 mps 742 mmHg 85%

    Day after tomorrow, 22 February, Friday

    Time Temperature Precipitation Wind Pressure Humidity
    00:00 +6°C° 0 mm 4 mps 742 mmHg 87%
    01:00 +6°C° 0 mm 5 mps 742 mmHg 88%
    02:00 +6°C° 0 mm 5 mps 742 mmHg 87%
    03:00 +6°C° 0 mm 5 mps 742 mmHg 87%
    04:00 +5°C° 0 mm 6 mps 742 mmHg 86%
    05:00 +5°C° 0.1 mm 6 mps 742 mmHg 86%
    06:00 +5°C° 0.1 mm 6 mps 742 mmHg 86%
    07:00 +5°C° 0.1 mm 7 mps 742 mmHg 86%
    08:00 +5°C° 0.3 mm 7 mps 742 mmHg 85%
    09:00 +5°C° 0.3 mm 6 mps 742 mmHg 85%
    10:00 +5°C° 0.3 mm 6 mps 742 mmHg 84%
    11:00 +7°C° 0.1 mm 6 mps 742 mmHg 83%
    12:00 +7°C° 0.1 mm 6 mps 742 mmHg 82%
    13:00 +8°C° 0.1 mm 5 mps 743 mmHg 81%
    14:00 +8°C° 0.2 mm 5 mps 743 mmHg 79%
    15:00 +8°C° 0.2 mm 4 mps 743 mmHg 78%
    16:00 +8°C° 0.2 mm 4 mps 743 mmHg 76%
    17:00 +8°C° 0.1 mm 3 mps 744 mmHg 80%
    18:00 +7°C° 0.1 mm 3 mps 745 mmHg 84%
    19:00 +6°C° 0.1 mm 2 mps 745 mmHg 87%
    20:00 +5°C° 0 mm 2 mps 746 mmHg 87%
    21:00 +5°C° 0 mm 2 mps 746 mmHg 87%
    22:00 +5°C° 0 mm 1 mps 747 mmHg 87%
    23:00 +4°C° 0 mm 1 mps 747 mmHg 87%

    23 February, Saturday

    Time Temperature Precipitation Wind Pressure Humidity
    00:00 +3°C° 0 mm 1 mps 747 mmHg 87%
    01:00 +1°C° 0 mm 2 mps 747 mmHg 87%
    02:00 +2°C° 0 mm 1 mps 747 mmHg 85%
    03:00 +1°C° 0 mm 1 mps 747 mmHg 83%
    04:00 0°C° 0 mm 1 mps 747 mmHg 81%
    05:00 0°C° 0 mm 1 mps 747 mmHg 77%
    06:00 0°C° 0 mm 1 mps 747 mmHg 74%
    07:00 0°C° 0 mm 1 mps 747 mmHg 71%
    08:00 -1°C° 0 mm 2 mps 748 mmHg 62%
    09:00 +1°C° 0 mm 2 mps 748 mmHg 53%
    10:00 +2°C° 0 mm 2 mps 748 mmHg 44%
    11:00 +3°C° 0 mm 2 mps 748 mmHg 41%
    12:00 +4°C° 0 mm 2 mps 748 mmHg 38%
    13:00 +5°C° 0 mm 2 mps 748 mmHg 35%
    14:00 +5°C° 0 mm 2 mps 747 mmHg 36%
    15:00 +5°C° 0 mm 2 mps 747 mmHg 37%
    16:00 +5°C° 0 mm 2 mps 747 mmHg 38%
    17:00 +3°C° 0 mm 2 mps 747 mmHg 43%
    18:00 +2°C° 0 mm 2 mps 747 mmHg 48%
    19:00 +1°C° 0 mm 2 mps 748 mmHg 53%
    20:00 -1°C° 0 mm 2 mps 748 mmHg 52%
    21:00 -1°C° 0 mm 2 mps 748 mmHg 51%
    22:00 -1°C° 0 mm 2 mps 748 mmHg 51%
    23:00 -2°C° 0 mm 2 mps 748 mmHg 49%

    24 February, Sunday

    Time Temperature Precipitation Wind Pressure Humidity
    00:00 -2°C° 0 mm 2 mps 748 mmHg 48%
    01:00 -2°C° 0 mm 2 mps 748 mmHg 47%
    02:00 -2°C° 0 mm 2 mps 748 mmHg 46%
    03:00 -2°C° 0 mm 2 mps 747 mmHg 46%
    04:00 0°C° 0 mm 1 mps 747 mmHg 45%
    05:00 0°C° 0 mm 1 mps 747 mmHg 44%
    06:00 0°C° 0 mm 1 mps 747 mmHg 43%
    07:00 0°C° 0 mm 1 mps 747 mmHg 43%
    08:00 +1°C° 0 mm 1 mps 747 mmHg 37%
    09:00 +2°C° 0 mm 2 mps 747 mmHg 32%
    10:00 +4°C° 0 mm 2 mps 747 mmHg 27%
    11:00 +5°C° 0 mm 2 mps 747 mmHg 26%
    12:00 +7°C° 0 mm 1 mps 746 mmHg 26%
    13:00 +8°C° 0 mm 1 mps 746 mmHg 25%
    14:00 +8°C° 0 mm 1 mps 746 mmHg 30%
    15:00 +8°C° 0 mm 1 mps 746 mmHg 35%
    16:00 +8°C° 0 mm 1 mps 745 mmHg 39%
    17:00 +6°C° 0 mm 1 mps 746 mmHg 43%
    18:00 +4°C° 0 mm 1 mps 746 mmHg 47%
    19:00 +3°C° 0 mm 1 mps 747 mmHg 51%
    20:00 +2°C° 0 mm 1 mps 747 mmHg 53%
    21:00 +2°C° 0 mm 1 mps 747 mmHg 55%
    22:00 +1°C° 0 mm 1 mps 747 mmHg 56%
    23:00 +1°C° 0 mm 1 mps 747 mmHg 56%

    25 February, Monday

    Time Temperature Precipitation Wind Pressure Humidity
    00:00 +1°C° 0 mm 1 mps 747 mmHg 57%
    01:00 +1°C° 0 mm 1 mps 747 mmHg 57%
    02:00 +1°C° 0 mm 1 mps 747 mmHg 57%
    03:00 +1°C° 0 mm 1 mps 747 mmHg 57%
    04:00 +1°C° 0 mm 1 mps 747 mmHg 57%
    05:00 +1°C° 0 mm 1 mps 747 mmHg 57%
    06:00 +1°C° 0 mm 1 mps 747 mmHg 57%
    07:00 +1°C° 0 mm 1 mps 747 mmHg 57%
    08:00 +3°C° 0 mm 1 mps 747 mmHg 53%
    09:00 +4°C° 0 mm 0 mps 747 mmHg 48%
    10:00 +5°C° 0 mm 0 mps 747 mmHg 44%
    11:00 +7°C° 0 mm 1 mps 746 mmHg 44%
    12:00 +8°C° 0 mm 1 mps 746 mmHg 44%
    13:00 +9°C° 0 mm 1 mps 746 mmHg 44%
    14:00 +9°C° 0 mm 1 mps 746 mmHg 47%
    15:00 +9°C° 0 mm 1 mps 745 mmHg 50%
    16:00 +9°C° 0 mm 1 mps 745 mmHg 54%
    17:00 +8°C° 0 mm 1 mps 745 mmHg 59%
    18:00 +6°C° 0 mm 1 mps 746 mmHg 64%
    19:00 +5°C° 0 mm 1 mps 746 mmHg 69%
    20:00 +4°C° 0 mm 1 mps 746 mmHg 71%
    21:00 +4°C° 0 mm 1 mps 746 mmHg 73%
    22:00 +3°C° 0 mm 1 mps 747 mmHg 76%
    23:00 +3°C° 0 mm 1 mps 747 mmHg 77%
    Show more